Simultaneous Nadir Overpasses (SNOs) Predictions

Prediction of SNOs between AQUA and METOP-C Satellite Orbit:

Table of predicted SNOs for the next 14.0 days since TLE Epoch: 5/3/2025
Index Date (AQUA) Time (AQUA) Lat,Lon (AQUA) SZA (AQUA ) Date (METOP-C) Time (METOP-C) Lat,Lon (METOP-C) SZA (METOP-C ) Distance(km) Time Diff (sec)
1 05/03/2025 09:27:24 -76.19,-138.77 119.66 05/03/2025 09:26:15 -76.16,-140.67 119.72 50.64 69
2 05/03/2025 10:16:50 76.52, 27.81 60.64 05/03/2025 10:16:48 76.48, 27.82 60.61 3.97 2
3 05/03/2025 11:06:13 -76.79,-165.49 119.11 05/03/2025 11:07:22 -76.82,-163.57 119.05 48.88 69
4 05/05/2025 22:15:56 -76.47, 28.25 120.12 05/05/2025 22:15:07 -76.47, 28.22 120.12 0.89 49
5 05/05/2025 23:05:16 76.51,-164.22 59.92 05/05/2025 23:05:46 76.52,-164.26 59.93 1.61 30
6 05/08/2025 11:04:21 -76.49,-163.84 120.80 05/08/2025 11:04:05 -76.50,-163.90 120.78 2.50 16
7 05/08/2025 11:53:41 76.53, 3.68 59.24 05/08/2025 11:54:44 76.55, 3.62 59.27 2.80 63
8 05/10/2025 23:03:27 76.50,-163.58 58.56 05/10/2025 23:02:22 76.50,-163.48 58.56 2.58 65
9 05/10/2025 23:52:45 -76.53, 3.99 121.42 05/10/2025 23:53:03 -76.52, 3.94 121.42 1.48 18
10 05/13/2025 11:51:48 76.52, 4.33 57.95 05/13/2025 11:51:19 76.51, 4.32 57.94 0.47 29
11 05/13/2025 12:41:06 -76.54, 171.92 122.04 05/13/2025 12:41:59 -76.58, 171.91 122.00 4.26 53
12 05/15/2025 23:50:49 -76.50, 4.70 122.67 05/15/2025 23:49:37 -76.51, 4.74 122.66 1.59 72
13 05/16/2025 00:40:09 76.56, 172.16 57.39 05/16/2025 00:40:16 76.56, 172.26 57.39 2.47 7



Historial Predications of SNOs between AQUA and METOP-C
